01:36
Airports
History
Links
Donate
Help keep this website running!
PayPal
Bitcoin
This page is community maintained. The information is intended for PC simulator navigation or reference.
Always use approved charts for navigation.
CYGQ
GERALDTON GREENSTONE REGIONAL
GERALDTON GREENSTONE REGIONAL (CYGQ)
Greenstone, Ontario, Canada
(U)
Lat/Lng:49° 46' 42.5" N / 86° 56' 21.51" W
49.778473 / -86.939307
Elevation:1144'ft / 349mMSL
ID / ICAO:CYGQ
Runways:1
Longest:08-26
Asphalt 1,529m / 5,016ft
METAR01:00 GMT 2017-12-16
Altimeter: 29.82
Visibility: 15.0 statute miles
Wind: 4 knots (from 310°)
Temp: -25°c / -13°f
Humidity: 75.8%

METAR: CYGQ 160100Z 31004KT 15SM SKC M25/M28 A2982 RMK SLP142

(Powered by phpweather)
Airport Radio Frequencies
CTAF/UNICOM: 122.8
Nearby VORs <50NM
Nearby NDBs
Runway 08 / 26
Dimensions:1528.9 x 30.5m 5016' x 100'ft
Surface:Asphalt
Edge Lights:Medium intensity
Runway 08 [A]Runway 26 [B]
Heading:072°TH 252°TH
Lat:
Lng:
49° 46' 35"N
86° 56' 58"W
49° 46' 50"N
86° 55' 45.01"W
TDZ:Yes, lighted
User Notes and Comments
49° 46' 42.5" N / 86° 56' 21.51" W
Distance To
Airport ID:
Nearby Airports
(U) NAKINA 29.7 NM
CYQN NNE 21°
(U) MANITOUWADGE 68.2 NM
CYMG SE 134°
(U) MARATHON 75.6 NM
CYSP SSE 159°
(U) ARMSTRONG 94.7 NM
CYYW WNW 292°
(U) HORNEPAYNE MUNI 105.9 NM
CYHN ESE 112°
(C) Thunder Bay 145.2 NM
CYQT ( WX ) SW 227°
(U) HEARST RENE FONTAINE MUNI 145.3 NM
CYHF E 91°
VFR Chart
Flight Planning at SkyVector.com